Powrót do katalogu

CZ-6A DEB

AktywnySSO
NORAD 54460·DEBRIS·🇨🇳 China

Wystrzelony Nov 11, 2022 z Taiyuan Satellite Launch Center

Loading…

Następne Przeloty (najbliższe 24 godziny)

TLE

ŚwieżeSource: Space-Track

Epoka: Sep 14, 2026, 12:34 UTC

1 54460U 22151GL  26257.52361777  .00001023  00000-0  34092-3 0  9997
2 54460  98.6703 291.1598 0122159 166.8151 193.6276 14.35638033200469

Śledź CZ-6A DEB w czasie rzeczywistym z AllMySat

Download on the App Store